Dewpoint
70 72 71 70 71 72 71 72 70 69 67 67 67 67 67 67 64 64 65 65 65 66 69 70 71 70 69 70 67 69 71 70 70 71 73 73 73 73 73 73 73 72 73 73 71 72 74 74 75 75 74 74 73 71 70 72 74 72 71 71 70 71 72 72 71 70 70 69 67 67 65 68 65 70 71 69 70 73 72 72 74 71 72 74 75
69 71 71 70 69 70 70 70 71 70 67 66 67 66 66 66 66 65 63 65 65 64 68 68 69 69 69 69 70 68 70 72 68 69 71 72 72 69 70 73 74 74 73 73 71 71 73 73 72 72 73 72 70 68 68 67 68 69 70 70 69 70 71 70 71 71 70 70 68 69 67 68 68 70 71 70 69 72 71 72 70 70 71 72 76
67 71 71 71 70 69 69 70 70 69 66 64 64 63 64 66 67 65 62 62 65 65 64 66 68 70 70 70 71 69 71 70 71 70 70 71 72 71 68 70 71 71 71 71 71 72 70 71 71 71 68 69 70 68 67 66 66 68 68 69 70 69 70 72 72 71 71 70 70 68 68 68 69 70 71 70 74 73 74 72 70 67 68 69 69
66 69 70 70 69 69 69 68 67 66 64 63 63 61 60 63 66 65 63 60 60 66 65 65 66 70 69 70 70 71 70 70 71 70 70 70 71 72 72 71 70 70 69 69 69 69 69 70 69 68 68 69 70 69 68 68 68 68 67 69 71 71 72 71 73 74 72 70 72 70 68 70 70 71 70 72 71 72 72 73 71 70 69 69 68
72 71 69 68 68 69 68 66 66 66 65 63 62 60 59 58 62 64 63 60 59 62 65 66 68 69 67 69 70 71 71 71 71 69 69 69 71 70 71 72 71 71 70 70 69 70 70 69 68 69 69 69 69 68 67 68 68 67 67 68 69 69 70 71 72 73 74 73 73 74 73 72 72 74 73 70 70 72 73 75 74 74 73 69 67
68 71 68 67 69 68 68 66 65 66 65 63 61 61 59 57 58 61 63 62 61 57 62 64 64 68 69 69 70 70 71 72 72 71 68 68 69 69 69 70 69 70 70 69 69 70 69 70 69 69 69 68 67 67 69 68 68 67 68 68 68 69 70 71 73 73 73 73 74 72 74 71 72 73 73 74 72 71 71 71 72 73 76 75 72
71 68 71 69 71 68 67 67 66 65 65 64 62 62 60 57 57 57 61 62 61 58 57 63 65 65 68 69 68 70 70 70 72 72 71 70 68 69 67 68 68 69 69 68 66 67 68 68 69 69 69 69 67 67 68 68 68 68 70 70 70 69 69 70 71 71 72 72 72 72 71 71 71 71 73 74 74 73 72 70 69 70 73 74 74
71 70 74 71 70 68 67 67 67 67 66 69 66 62 60 60 59 59 60 61 60 58 57 57 61 64 65 67 68 69 70 70 72 73 73 71 68 68 68 68 66 67 66 66 66 63 63 64 63 64 66 69 69 69 70 67 69 69 68 70 70 70 69 68 69 69 70 69 69 68 68 72 72 70 70 73 72 72 72 72 72 73 73 74 73
69 68 70 72 74 71 70 68 68 69 69 72 69 66 62 63 63 62 62 61 59 59 57 55 58 62 64 66 68 66 63 66 68 70 71 72 71 67 67 68 68 66 65 64 64 64 63 61 60 59 66 74 74 75 73 77 71 70 71 71 72 72 72 71 70 70 70 69 70 70 68 69 69 70 67 68 70 70 71 69 70 70 69 69 73
69 67 67 70 72 73 72 73 71 71 71 73 73 70 66 65 62 63 63 62 64 65 63 60 57 58 61 64 66 64 62 61 69 68 70 71 71 66 66 69 70 68 67 66 63 62 61 60 58 69 73 73 75 77 75 75 76 70 70 71 73 74 73 73 72 71 70 70 68 68 66 65 64 68 67 67 70 72 70 71 70 72 73 72 73
70 67 68 69 70 72 72 73 73 74 74 73 73 73 71 68 67 69 67 66 68 71 66 63 59 58 58 61 63 62 60 58 65 63 65 68 71 70 68 68 70 69 67 69 67 64 61 61 61 64 73 76 76 75 74 73 73 73 72 73 75 76 74 72 72 72 71 69 69 68 66 66 63 63 61 58 58 60 61 68 67 69 71 70 70
71 73 73 70 72 72 72 73 73 74 74 74 75 74 72 71 71 70 68 66 71 66 65 66 67 61 59 59 59 59 60 63 61 62 63 64 68 70 66 66 65 66 68 67 67 66 65 62 59 57 60 64 65 75 75 73 71 71 71 71 70 70 71 75 75 73 72 71 70 69 67 67 67 67 63 62 66 68 68 66 71 71 71 71 71
71 73 73 74 73 72 74 73 73 74 74 75 75 75 75 73 71 69 67 68 68 71 71 68 68 67 64 65 60 60 59 61 60 61 62 63 64 68 62 62 62 62 65 67 68 69 68 66 64 61 55 72 73 65 75 76 71 69 70 71 71 70 67 67 68 74 75 74 72 71 71 71 71 70 67 69 72 71 72 68 71 72 73 72 71
72 72 72 73 73 73 73 74 74 75 75 75 76 76 74 74 71 69 68 70 70 70 69 70 70 72 70 68 69 64 63 63 59 60 61 62 63 66 67 62 58 59 63 62 63 66 69 70 69 67 67 67 69 67 70 72 76 77 75 74 74 73 70 67 67 67 70 72 72 71 72 74 74 75 75 75 73 74 74 72 72 70 71 72 73
69 70 71 73 73 74 74 73 74 76 76 74 75 76 76 75 73 70 68 68 70 71 70 71 71 71 70 69 69 66 63 62 58 58 59 60 62 64 70 66 65 63 61 63 67 64 68 68 71 70 71 71 68 68 68 71 73 73 76 75 74 73 73 72 71 69 70 69 70 71 72 73 74 74 75 76 75 76 75 75 74 73 74 74 74
67 68 69 71 71 73 74 73 73 72 74 73 74 74 74 76 74 72 71 68 69 69 71 71 70 70 71 71 69 69 67 61 58 57 57 58 61 69 71 71 69 68 67 66 65 68 67 67 70 72 72 73 72 68 69 71 71 72 72 72 73 73 72 72 67 67 68 67 69 68 67 67 66 71 73 71 74 78 77 77 76 76 75 74 72
66 67 67 68 69 71 73 73 73 73 73 73 72 73 74 73 77 75 72 70 69 68 70 69 71 69 70 71 71 70 69 65 58 56 56 57 61 70 71 70 71 70 70 70 70 69 67 69 73 68 69 72 70 64 64 70 71 70 72 71 70 67 67 67 67 64 64 63 63 64 64 64 63 63 63 66 74 75 77 74 72 74 74 72 70
65 66 66 66 67 69 70 72 73 74 74 73 73 73 74 75 75 76 75 72 70 68 69 69 70 71 70 70 69 70 70 68 57 55 55 55 63 70 72 71 70 71 71 71 71 71 71 71 73 71 70 72 66 63 63 70 73 71 70 69 69 69 69 65 61 67 63 62 62 63 63 64 65 65 65 65 65 71 75 73 73 72 72 72 69
63 65 67 67 67 68 70 72 72 73 73 73 73 72 72 73 74 74 73 73 72 72 71 70 69 70 68 69 72 70 69 67 57 55 55 54 62 71 71 71 70 70 70 71 71 71 72 72 72 71 71 71 65 63 62 68 73 72 71 70 68 68 67 65 64 63 67 71 73 72 72 70 73 75 75 69 68 73 77 76 74 72 70 69 70
63 64 65 65 66 68 68 71 72 71 72 73 74 74 74 75 74 75 75 75 74 74 72 71 70 69 68 69 68 68 69 70 71 56 54 53 56 71 72 70 70 71 71 71 71 72 72 72 72 63 62 62 62 61 59 60 73 73 72 70 70 70 68 67 67 64 66 65 72 74 75 76 76 76 76 76 75 74 76 74 73 72 71 71 70
64 65 66 67 67 68 70 70 71 70 71 73 73 73 75 74 75 75 74 74 75 75 73 72 71 71 70 71 70 69 68 69 73 55 54 53 54 59 70 71 71 71 71 72 71 70 71 71 71 66 60 59 59 58 57 57 64 74 73 72 71 72 71 68 69 73 67 70 71 71 74 76 76 75 74 75 73 73 73 72 72 71 71 69 68
63 64 65 65 67 69 69 70 71 70 72 72 72 72 72 74 74 74 75 75 73 73 73 73 72 72 72 71 71 71 72 71 69 59 54 53 52 53 67 69 70 71 71 72 71 71 71 70 72 69 60 58 57 56 56 57 58 72 75 64 64 64 74 72 69 69 68 67 66 67 66 66 68 73 73 73 73 73 73 74 72 70 70 68 68
62 63 64 65 65 66 67 67 67 68 71 72 71 72 73 72 73 74 74 73 73 73 74 73 73 72 72 72 69 70 72 73 67 72 54 52 52 52 57 64 62 73 69 70 71 71 71 72 72 70 61 56 55 55 55 56 59 67 62 61 60 61 68 71 71 70 69 69 70 71 69 67 67 67 67 69 70 73 71 73 73 72 71 69 70
62 62 63 64 65 66 67 67 68 67 68 68 70 71 71 72 73 72 73 74 73 73 73 73 72 71 70 71 69 69 72 72 70 64 67 52 51 51 52 55 59 67 69 68 69 69 71 71 71 63 60 54 52 54 55 56 63 59 58 59 61 63 69 71 70 70 70 69 69 70 70 69 68 68 69 70 68 73 72 70 71 72 73 71 73
60 60 61 62 63 63 65 65 69 70 69 67 68 70 70 71 72 72 73 72 73 72 73 72 72 71 71 71 71 70 70 71 71 70 62 58 52 51 51 52 54 55 67 69 70 69 65 60 58 58 58 56 52 54 55 55 55 57 57 58 62 68 69 70 69 70 69 70 69 70 69 70 70 71 73 75 75 74 76 70 68 68 69 75 75
60 60 60 60 61 61 61 61 64 65 66 66 67 68 69 69 72 73 72 72 72 72 73 73 72 72 71 71 71 70 71 72 71 74 71 66 59 53 52 52 54 55 58 66 63 62 60 59 57 58 60 62 67 67 68 68 58 56 58 60 66 67 69 69 70 70 69 69 69 69 69 69 69 72 76 77 76 74 73 73 71 68 71 73 74
59 59 59 58 59 59 61 60 60 62 64 65 66 68 68 69 70 70 70 70 70 70 71 71 73 70 71 72 71 71 71 71 72 75 78 76 71 66 60 58 55 55 58 62 60 63 66 65 66 63 62 62 65 67 67 68 67 63 63 64 66 67 68 69 69 70 70 69 69 69 69 70 72 74 75 75 76 75 74 74 71 70 72 72 73
56 58 55 56 57 58 59 61 63 61 62 64 66 69 70 67 67 68 69 68 67 68 67 68 68 69 70 72 73 74 72 76 74 75 75 76 75 76 72 70 66 64 64 65 66 66 66 64 65 69 70 69 70 69 69 71 70 70 69 67 67 68 68 68 69 70 71 71 70 70 70 72 72 71 71 71 71 73 75 74 73 72 71 72 72
59 58 59 58 58 60 60 61 61 61 60 63 62 64 65 66 67 67 66 66 68 70 68 69 70 68 69 72 73 71 71 72 72 65 69 62 71 73 73 73 72 71 69 63 73 73 71 69 69 68 69 69 69 69 69 70 70 70 71 71 70 69 69 68 68 68 70 70 70 71 70 71 71 71 70 70 72 71 75 76 77 76 75 73 70
58 57 56 55 56 56 57 57 58 58 58 58 60 61 65 60 65 66 66 66 63 59 58 67 70 69 69 70 71 70 73 74 66 57 57 57 55 55 55 52 51 65 62 59 67 71 69 69 69 69 70 70 69 69 69 69 70 70 70 67 69 70 69 69 69 68 69 69 70 70 71 71 71 71 70 70 72 71 73 71 76 76 76 73 72
57 57 55 54 54 56 57 57 57 60 61 60 60 61 61 64 57 55 55 58 55 53 52 52 52 54 64 67 66 62 61 58 53 52 52 52 53 52 51 52 51 50 51 66 70 70 70 70 70 70 70 70 69 70 70 70 69 70 70 70 71 70 69 69 70 70 68 68 69 70 69 70 70 71 70 70 71 71 70 73 74 75 73 73 72
57 55 56 55 56 58 57 59 59 58 59 61 62 62 62 62 63 59 52 54 53 50 49 48 48 49 50 55 62 68 63 58 54 52 51 49 50 49 49 49 48 48 50 56 70 70 69 69 69 70 70 70 69 69 69 70 70 70 70 70 69 70 70 70 72 70 70 69 69 69 69 69 70 70 69 69 69 70 70 70 70 70 71 71 72
56 56 55 56 56 57 57 59 60 60 59 60 61 62 61 60 60 61 71 53 50 51 51 50 49 49 48 47 46 49 53 54 52 50 49 49 48 48 47 46 46 47 51 63 69 70 70 70 70 71 70 70 70 70 70 71 70 70 70 70 69 70 71 73 71 71 69 68 69 68 68 69 69 68 68 69 70 69 69 69 69 68 68 69 71
55 55 56 56 55 56 56 58 59 59 60 61 61 61 60 61 60 61 60 60 63 62 50 47 47 48 47 46 47 47 46 46 47 46 46 46 46 46 47 55 49 46 54 68 68 68 69 70 70 70 71 71 70 70 71 70 70 70 70 70 70 71 74 76 76 73 70 69 69 68 68 69 69 70 70 70 69 70 70 69 68 68 68 67 67
55 56 57 57 56 55 56 57 57 59 60 60 59 59 59 60 61 61 60 60 60 60 60 64 58 49 58 58 50 45 45 46 46 46 46 45 46 46 45 62 67 63 58 63 67 68 69 69 69 70 71 71 71 70 70 70 70 70 70 70 70 71 72 72 71 72 72 71 71 70 70 69 75 72 72 72 72 72 68 69 68 68 69 69 69
54 54 54 54 54 54 55 56 57 58 59 60 60 58 58 58 58 58 59 59 60 60 60 61 63 60 51 48 51 50 48 48 48 48 46 46 45 46 65 69 69 69 68 65 65 66 68 69 70 71 72 72 72 71 71 70 70 71 71 71 69 70 71 70 70 72 74 74 75 75 70 71 71 71 72 72 72 71 69 69 69 68 68 68 70
52 53 53 53 54 54 55 56 56 56 57 56 57 58 58 58 58 58 59 60 60 61 61 63 63 63 61 65 60 51 48 48 47 47 45 44 42 54 64 67 68 69 69 69 69 68 68 69 70 71 72 72 72 71 71 71 72 73 70 73 74 72 71 71 73 73 72 73 73 73 72 72 71 72 71 71 69 70 70 69 67 66 67 67 66
52 53 54 55 55 54 55 55 54 56 57 56 57 57 57 58 59 58 59 59 59 59 60 62 60 61 62 63 66 66 69 46 45 45 42 41 51 61 64 66 67 68 69 70 72 71 70 71 71 71 71 71 72 72 71 72 72 72 71 74 75 75 70 74 72 71 71 72 72 72 72 72 72 72 71 72 70 69 69 68 68 68 68 67 69
51 52 54 56 56 55 56 55 56 55 56 55 55 55 56 57 56 57 57 58 58 59 59 60 60 60 61 62 63 64 63 65 65 65 66 67 67 67 67 67 68 68 68 69 70 71 71 72 72 74 72 72 71 71 72 71 71 71 72 73 73 72 74 77 74 73 71 71 72 73 72 73 73 73 72 72 71 71 70 69 69 69 69 70 71
51 51 53 55 54 54 54 53 53 54 54 55 55 55 56 54 54 55 56 56 57 57 57 58 58 60 60 62 62 61 61 61 61 63 64 65 66 68 68 68 68 68 69 70 70 71 72 71 72 72 74 76 73 73 74 72 72 72 73 74 76 73 75 77 75 73 72 72 73 74 73 73 73 73 73 72 72 72 72 71 70 71 71 71 72
51 52 54 55 54 54 54 54 55 55 55 55 55 55 54 55 55 56 55 55 55 55 56 56 57 59 60 57 47 50 60 61 61 62 63 64 66 66 67 68 69 68 67 67 68 67 67 68 68 70 72 73 75 76 75 74 74 75 76 75 74 72 72 74 76 74 73 73 74 74 74 73 73 73 72 72 68 70 72 72 72 71 71 71 71
53 53 54 54 54 54 54 53 53 55 56 56 55 54 54 55 55 54 54 54 54 55 55 55 56 58 56 48 48 47 56 59 60 60 62 64 65 66 66 65 62 61 60 59 59 60 61 62 63 65 67 68 70 69 68 69 69 69 70 72 73 73 72 72 73 75 75 74 74 74 74 73 73 72 72 67 72 72 72 72 72 72 72 72 71
57 57 55 55 55 54 54 53 54 54 54 54 55 56 56 55 54 54 54 55 54 54 54 55 55 56 58 53 53 51 56 57 59 59 59 58 58 58 57 57 56 56 56 55 55 55 56 58 59 61 62 63 63 63 65 65 64 65 66 66 67 68 70 71 73 74 75 75 75 74 74 74 72 72 73 73 72 73 73 73 72 72 72 72 71
56 54 54 54 55 55 55 55 55 55 54 55 55 55 55 55 55 55 54 54 54 54 54 54 55 55 56 54 54 53 54 54 54 54 54 54 54 53 53 53 52 52 53 53 53 53 54 55 56 57 58 59 58 58 57 57 58 59 60 61 62 63 65 67 69 71 72 74 74 74 74 73 72 73 72 71 72 72 72 72 72 72 72 72 72
57 56 54 54 54 54 54 54 54 54 54 55 54 55 54 54 53 53 53 53 53 53 53 53 53 53 53 52 52 51 52 52 52 51 51 51 51 51 51 51 51 51 51 51 51 52 52 52 52 52 53 54 54 54 54 54 55 55 56 57 58 59 61 62 63 63 65 67 69 71 72 72 72 72 72 72 71 72 71 72 71 68 71 71 70
53 55 53 53 53 54 54 54 55 55 55 54 53 53 53 53 53 53 52 52 53 53 52 52 51 51 51 50 50 50 49 49 49 49 49 49 48 48 49 49 49 49 49 49 49 50 50 50 50 50 50 50 50 50 50 51 52 52 53 54 54 55 55 56 57 59 60 64 67 69 70 71 71 71 70 71 72 72 71 71 71 70 71 70 70
52 52 51 53 52 53 54 54 54 54 54 54 54 53 53 53 52 52 52 52 52 51 50 50 50 49 49 49 48 48 48 47 46 47 47 47 47 47 47 47 47 47 47 48 48 48 48 49 48 48 48 48 48 48 48 48 49 49 50 51 51 52 53 54 55 58 60 63 64 66 67 68 69 70 69 70 70 71 70 70 70 70 70 69 68
51 51 51 52 51 52 52 53 53 54 53 52 52 52 52 52 52 51 51 50 50 49 49 48 48 48 48 47 47 46 46 46 45 46 45 45 45 46 46 46 46 46 47 47 47 47 47 47 47 47 47 47 47 47 47 47 48 48 48 49 49 49 49 48 57 61 62 62 64 65 65 66 67 67 67 68 68 67 67 66 65 65 66 65 64
50 51 51 51 51 51 51 51 52 52 52 52 52 52 52 51 50 49 49 48 48 47 47 46 46 46 46 46 45 45 45 45 44 44 44 44 44 44 44 45 45 45 45 45 45 46 46 46 46 46 46 46 46 46 45 46 46 46 47 47 46 44 42 44 51 59 57 61 61 61 60 60 59 60 61 62 61 61 61 61 62 61 62 63 63
47 50 50 50 50 50 51 51 50 50 51 50 50 50 49 50 49 48 47 47 46 46 45 45 45 44 44 44 44 44 43 43 43 43 43 44 44 44 44 44 45 45 45 45 45 45 46 46 46 46 46 46 46 45 44 44 44 44 44 43 40 40 42 44 46 50 58 59 58 57 57 57 56 57 57 57 58 58 57 57 57 58 58 58 58
48 49 50 50 51 51 50 50 50 50 49 49 49 49 48 48 47 46 45 45 44 44 44 43 43 43 43 43 44 43 43 43 43 43 43 43 43 43 43 43 44 44 43 43 43 43 44 44 44 45 45 45 45 44 44 43 42 41 40 39 38 39 40 41 50 43 47 52 57 55 54 55 55 55 55 55 55 54 53 54 54 54 54 54 54